User: anonymous   Login
Location: Clatteringshaws Loch
(55.0508°N, 4.2860°W)
Time: 22:54:15
(UTC+01:00)
Language:

Sapphire - Orbit

View from above orbital plane
View from above orbital plane
View from above satellite
View from above satellite

Ground track
Ground track

The orbit data is extracted from the following two-line orbital elements,

1 26932U 01043D   16126.31732109 -.00000010  00000-0  27912-4 0  9999
2 26932  67.0569  65.2808 0009082 264.4872  95.5193 14.30209353762049
Epoch (UTC): 05 May 2016 07:36:56
Eccentricity: 0.0009082
inclination: 67.0569°
perigee height: 784 km
apogee height: 797 km
right ascension of ascending node: 65.2808°
argument of perigee: 264.4872°
revolutions per day: 14.30209353
mean anomaly at epoch: 95.5193°
orbit number at epoch: 76204

The dashed part of the orbit path shows where the satellite is in the earth's shadow,  

DLR